| time (UTC) | temp F | wind direction | speed MPH | gust MPH | rain 1hr in | rain 24hr in | rain mn in | humidity % | barometer mb |
| 20260510181618 | 84 | 113 | 8.0 | 15.0 | 0.00 | 0.00 | 0.00 | 66 | 1005.9 |
| 20260510180105 | 83 | 122 | 4.0 | 12.0 | 0.00 | 0.00 | 0.00 | 69 | 1006.1 |
| 20260510174614 | 83 | 126 | 3.0 | 15.0 | 0.00 | 0.00 | 0.00 | 70 | 1006.1 |
| 20260510173055 | 82 | 129 | 0.0 | 16.0 | 0.00 | 0.00 | 0.00 | 69 | 1006.2 |
| 20260510171618 | 81 | 110 | 1.0 | 13.0 | 0.00 | 0.00 | 0.00 | 71 | 1006.3 |
| 20260510170051 | 81 | 119 | 3.0 | 9.0 | 0.00 | 0.00 | 0.00 | 73 | 1006.2 |
| 20260510164557 | 80 | 114 | 0.0 | 8.0 | 0.00 | 0.00 | 0.00 | 74 | 1006.3 |
| 20260510163051 | 79 | 130 | 0.0 | 8.0 | 0.00 | 0.00 | 0.00 | 77 | 1006.4 |
| 20260510161541 | 78 | 119 | 0.0 | 0.0 | 0.00 | 0.00 | 0.00 | 77 | 1006.5 |
| 20260510160042 | 78 | 99 | 0.0 | 0.0 | 0.00 | 0.00 | 0.00 | 77 | 1006.6 |
| 20260510154541 | 78 | 94 | 0.0 | 0.0 | 0.00 | 0.00 | 0.00 | 79 | 1006.7 |
| 20260510153040 | 77 | 147 | 0.0 | 0.0 | 0.00 | 0.00 | 0.00 | 80 | 1006.8 |
| 20260510151535 | 76 | 110 | 0.0 | 0.0 | 0.00 | 0.00 | 0.00 | 82 | 1006.8 |
| 20260510150033 | 76 | 86 | 0.0 | 0.0 | 0.00 | 0.00 | 0.00 | 82 | 1006.8 |
| 20260510144533 | 75 | 108 | 0.0 | 1.0 | 0.00 | 0.00 | 0.00 | 84 | 1006.8 |
| 20260510143031 | 74 | 107 | 0.0 | 0.0 | 0.00 | 0.00 | 0.00 | 85 | 1006.8 |
| 20260510141530 | 74 | 109 | 0.0 | 0.0 | 0.00 | 0.00 | 0.00 | 87 | 1006.8 |
| 20260510140029 | 73 | 116 | 0.0 | 0.0 | 0.00 | 0.00 | 0.00 | 87 | 1006.9 |
| 20260510134528 | 73 | 92 | 0.0 | 0.0 | 0.00 | 0.00 | 0.00 | 87 | 1006.8 |
| 20260510133026 | 71 | 107 | 0.0 | 0.0 | 0.00 | 0.00 | 0.00 | 89 | 1006.7 |
| 20260510131523 | 70 | 68 | 0.0 | 0.0 | 0.00 | 0.00 | 0.00 | 90 | 1006.4 |
| 20260510130022 | 70 | 84 | 0.0 | 1.0 | 0.00 | 0.00 | 0.00 | 91 | 1006.2 |
| 20260510124521 | 69 | 75 | 0.0 | 1.0 | 0.00 | 0.00 | 0.00 | 92 | 1006.1 |
| 20260510123018 | 68 | 42 | 0.0 | 0.0 | 0.00 | 0.00 | 0.00 | 92 | 1005.9 |
| 20260510121514 | 0 | 0.0 | 0.0 | 0.00 | 0.00 | 0.00 | 1005.5 | ||
| 20260510120010 | 0 | 0.0 | 0.0 | 0.00 | 0.00 | 0.00 | 1005.2 | ||
| 20260510114509 | 0 | 0.0 | 0.0 | 0.00 | 0.00 | 0.00 | 1004.9 | ||
| 20260510113003 | 0 | 0.0 | 0.0 | 0.00 | 0.00 | 0.00 | 1004.7 | ||
| 20260510111556 | 0 | 0.0 | 0.0 | 0.00 | 0.00 | 0.00 | 1004.3 | ||
| 20260510110100 | 0 | 0.0 | 0.0 | 0.00 | 0.00 | 0.00 | 1003.9 | ||
| 20260510104550 | 0 | 0.0 | 0.0 | 0.00 | 0.00 | 0.00 | 1003.6 | ||
| 20260510103050 | 0 | 0.0 | 0.0 | 0.00 | 0.00 | 0.00 | 1003.3 | ||
| 20260510101547 | 0 | 0.0 | 0.0 | 0.00 | 0.00 | 0.00 | 1002.9 | ||
| 20260510100046 | 0 | 0.0 | 0.0 | 0.00 | 0.00 | 0.00 | 1002.6 | ||
| 20260510094539 | 68 | 150 | 0.0 | 3.0 | 0.00 | 0.00 | 0.00 | 88 | 1002.7 |
| 20260510093031 | 69 | 156 | 0.0 | 0.0 | 0.00 | 0.00 | 0.00 | 88 | 1002.7 |
| 20260510091527 | 70 | 137 | 0.0 | 3.0 | 0.00 | 0.00 | 0.00 | 87 | 1002.7 |
| 20260510090024 | 70 | 149 | 0.0 | 4.0 | 0.00 | 0.00 | 0.00 | 86 | 1002.4 |
| 20260510084521 | 71 | 150 | 0.0 | 2.0 | 0.00 | 0.00 | 0.00 | 85 | 1002.3 |
| 20260510083018 | 72 | 128 | 0.0 | 0.0 | 0.00 | 0.00 | 0.00 | 83 | 1002.3 |
| 20260510081524 | 72 | 133 | 0.0 | 0.0 | 0.00 | 0.00 | 0.00 | 82 | 1001.9 |
| 20260510080114 | 72 | 161 | 0.0 | 5.0 | 0.00 | 0.00 | 0.00 | 81 | 1001.9 |
| 20260510074512 | 73 | 155 | 1.0 | 7.0 | 0.00 | 0.00 | 0.00 | 79 | 1001.8 |
| 20260510073012 | 74 | 137 | 2.0 | 9.0 | 0.00 | 0.00 | 0.00 | 77 | 1002.0 |
| 20260510071609 | 74 | 139 | 3.0 | 10.0 | 0.00 | 0.00 | 0.00 | 77 | 1002.2 |
| 20260510070007 | 73 | 139 | 2.0 | 8.0 | 0.00 | 0.00 | 0.00 | 80 | 1002.4 |
| 20260510064510 | 73 | 152 | 2.0 | 6.0 | 0.00 | 0.00 | 0.00 | 79 | 1002.4 |
| 20260510063005 | 73 | 148 | 1.0 | 6.0 | 0.00 | 0.00 | 0.00 | 80 | 1002.3 |
| 20260510061504 | 74 | 141 | 0.0 | 4.0 | 0.00 | 0.00 | 0.00 | 79 | 1002.4 |
| 20260510060100 | 74 | 144 | 2.0 | 7.0 | 0.00 | 0.00 | 0.00 | 76 | 1002.3 |
| 20260510054555 | 76 | 157 | 1.0 | 7.0 | 0.00 | 0.00 | 0.00 | 73 | 1002.2 |
| 20260510053057 | 76 | 165 | 3.0 | 7.0 | 0.00 | 0.00 | 0.00 | 73 | 1002.2 |
| 20260510051603 | 76 | 155 | 3.0 | 8.0 | 0.00 | 0.00 | 0.00 | 73 | 1002.3 |
| 20260510050105 | 76 | 150 | 3.0 | 6.0 | 0.00 | 0.00 | 0.00 | 73 | 1002.3 |
| 20260510044549 | 76 | 145 | 3.0 | 6.0 | 0.00 | 0.00 | 0.00 | 79 | 1002.3 |
| 20260510043049 | 75 | 150 | 3.0 | 5.0 | 0.00 | 0.00 | 0.00 | 82 | 1002.4 |
| 20260510041548 | 75 | 124 | 1.0 | 5.0 | 0.00 | 0.00 | 0.00 | 81 | 1002.5 |
| 20260510040047 | 75 | 141 | 2.0 | 5.0 | 0.00 | 0.00 | 0.00 | 81 | 1002.4 |
| 20260510034547 | 75 | 143 | 0.0 | 4.0 | 0.00 | 0.00 | 0.00 | 80 | 1002.4 |
| 20260510033054 | 76 | 143 | 0.0 | 2.0 | 0.00 | 0.00 | 0.00 | 80 | 1002.1 |
| 20260510031548 | 76 | 143 | 0.0 | 1.0 | 0.00 | 0.00 | 0.00 | 80 | 1002.0 |
| 20260510030045 | 77 | 143 | 0.0 | 2.0 | 0.00 | 0.00 | 0.00 | 78 | 1001.8 |
| 20260510024545 | 77 | 143 | 0.0 | 2.0 | 0.00 | 0.00 | 0.00 | 76 | 1001.6 |
| 20260510023043 | 78 | 143 | 0.0 | 3.0 | 0.00 | 0.00 | 0.00 | 75 | 1001.5 |
| 20260510021635 | 79 | 143 | 1.0 | 3.0 | 0.00 | 0.00 | 0.00 | 72 | 1001.3 |
| 20260510020043 | 80 | 143 | 0.0 | 3.0 | 0.00 | 0.00 | 0.00 | 70 | 1001.2 |
| 20260510014553 | 81 | 144 | 0.0 | 2.0 | 0.00 | 0.00 | 0.00 | 66 | 1000.8 |
| 20260510013048 | 82 | 144 | 0.0 | 3.0 | 0.00 | 0.00 | 0.00 | 63 | 1000.6 |
| 20260510011541 | 84 | 144 | 1.0 | 3.0 | 0.00 | 0.00 | 0.00 | 58 | 1000.4 |
| 20260510010049 | 86 | 145 | 0.0 | 2.0 | 0.00 | 0.00 | 0.00 | 55 | 1000.3 |
| 20260510004541 | 88 | 145 | 0.0 | 2.0 | 0.00 | 0.00 | 0.00 | 53 | 1000.2 |
| 20260510003039 | 89 | 145 | 2.0 | 4.0 | 0.00 | 0.00 | 0.00 | 51 | 1000.1 |
| 20260510001538 | 90 | 139 | 1.0 | 3.0 | 0.00 | 0.00 | 0.00 | 49 | 1000.1 |
| 20260510000038 | 91 | 139 | 1.0 | 3.0 | 0.00 | 0.00 | 0.00 | 45 | 1000.0 |
| 20260509234538 | 91 | 131 | 2.0 | 3.0 | 0.00 | 0.00 | 0.00 | 43 | 999.9 |
| 20260509233036 | 92 | 169 | 2.0 | 5.0 | 0.00 | 0.00 | 0.00 | 44 | 1000.0 |
| 20260509231537 | 92 | 165 | 3.0 | 5.0 | 0.00 | 0.00 | 0.00 | 43 | 999.9 |
| 20260509230040 | 94 | 306 | 0.0 | 3.0 | 0.00 | 0.00 | 0.00 | 40 | 999.9 |
| 20260509224533 | 92 | 143 | 1.0 | 8.0 | 0.00 | 0.00 | 0.00 | 41 | 999.9 |
| 20260509223037 | 93 | 274 | 2.0 | 6.0 | 0.00 | 0.00 | 0.00 | 38 | 999.9 |
| 20260509221531 | 92 | 140 | 1.0 | 3.0 | 0.00 | 0.00 | 0.00 | 40 | 999.9 |
| 20260509220031 | 92 | 208 | 1.0 | 6.0 | 0.00 | 0.00 | 0.00 | 42 | 1000.0 |
| 20260509214529 | 93 | 297 | 3.0 | 5.0 | 0.00 | 0.00 | 0.00 | 43 | 1000.1 |
| 20260509213030 | 93 | 37 | 1.0 | 4.0 | 0.00 | 0.00 | 0.00 | 41 | 1000.2 |
| 20260509211524 | 91 | 141 | 2.0 | 7.0 | 0.00 | 0.00 | 0.00 | 43 | 1000.4 |
| 20260509210023 | 91 | 293 | 0.0 | 6.0 | 0.00 | 0.00 | 0.00 | 44 | 1000.5 |
| 20260509204522 | 91 | 287 | 2.0 | 5.0 | 0.00 | 0.00 | 0.00 | 43 | 1000.8 |
| 20260509203025 | 91 | 257 | 4.0 | 7.0 | 0.00 | 0.00 | 0.00 | 46 | 1001.1 |
| 20260509201519 | 91 | 250 | 2.0 | 4.0 | 0.00 | 0.00 | 0.00 | 46 | 1001.3 |
| 20260509200016 | 90 | 236 | 0.0 | 7.0 | 0.00 | 0.00 | 0.00 | 48 | 1001.4 |
| 20260509194520 | 90 | 288 | 3.0 | 7.0 | 0.00 | 0.00 | 0.00 | 49 | 1001.5 |
| 20260509193020 | 89 | 274 | 3.0 | 6.0 | 0.00 | 0.00 | 0.00 | 50 | 1001.8 |
| 20260509191511 | 88 | 274 | 2.0 | 9.0 | 0.00 | 0.00 | 0.00 | 49 | 1002.1 |
| 20260509190009 | 88 | 255 | 4.0 | 9.0 | 0.00 | 0.00 | 0.00 | 48 | 1002.2 |
| 20260509184507 | 89 | 310 | 0.0 | 7.0 | 0.00 | 0.00 | 0.00 | 47 | 1002.3 |
| 20260509183012 | 88 | 302 | 2.0 | 9.0 | 0.00 | 0.00 | 0.00 | 51 | 1002.4 |